TimeEST,TemperatureF,Dew PointF,Humidity,Sea Level PressureIn,VisibilityMPH,Wind Direction,Wind SpeedMPH,Gust SpeedMPH,PrecipitationIn,Events,Conditions,WindDirDegrees,DateUTC
12:53 AM,28.9,21.0,72,30.16,8.0,SW,8.1,-,N/A,,Clear,220,2013-01-08 05:53:00
1:53 AM,28.0,21.0,75,30.16,9.0,SW,6.9,-,N/A,,Clear,220,2013-01-08 06:53:00
2:53 AM,28.0,19.9,72,30.17,9.0,SW,5.8,-,N/A,,Clear,220,2013-01-08 07:53:00
3:53 AM,28.0,21.0,75,30.17,9.0,SSW,6.9,-,N/A,,Clear,210,2013-01-08 08:53:00
4:53 AM,27.0,21.0,78,30.17,8.0,SSW,5.8,-,N/A,,Clear,200,2013-01-08 09:53:00
5:53 AM,26.1,19.9,78,30.18,7.0,SSW,5.8,-,N/A,,Mostly Cloudy,210,2013-01-08 10:53:00
6:53 AM,25.0,19.9,81,30.19,6.0,Calm,Calm,-,N/A,,Haze,0,2013-01-08 11:53:00
7:53 AM,24.1,19.9,84,30.21,5.0,SSW,3.5,-,N/A,,Mostly Cloudy,200,2013-01-08 12:53:00
8:53 AM,24.1,19.9,84,30.23,3.0,Calm,Calm,-,N/A,,Overcast,0,2013-01-08 13:53:00
9:53 AM,25.0,21.0,85,30.25,4.0,SSW,4.6,-,N/A,,Overcast,200,2013-01-08 14:53:00
10:53 AM,28.0,21.9,78,30.25,5.0,SSW,4.6,-,N/A,,Haze,210,2013-01-08 15:53:00
11:53 AM,32.0,23.0,69,30.23,6.0,South,6.9,-,N/A,,Haze,190,2013-01-08 16:53:00
12:53 PM,33.1,23.0,66,30.22,5.0,South,4.6,-,N/A,,Haze,190,2013-01-08 17:53:00
1:53 PM,32.0,23.0,69,30.21,5.0,SSE,6.9,-,N/A,,Haze,160,2013-01-08 18:53:00
2:53 PM,33.1,24.1,70,30.22,5.0,South,4.6,-,N/A,,Haze,180,2013-01-08 19:53:00
3:53 PM,35.1,24.1,64,30.22,6.0,Calm,Calm,-,N/A,,Haze,0,2013-01-08 20:53:00
4:53 PM,35.1,24.1,64,30.22,6.0,South,8.1,-,N/A,,Haze,170,2013-01-08 21:53:00
5:53 PM,33.1,24.1,70,30.23,7.0,South,6.9,-,N/A,,Mostly Cloudy,190,2013-01-08 22:53:00
6:53 PM,32.0,24.1,73,30.23,6.0,South,4.6,-,N/A,,Haze,190,2013-01-08 23:53:00
7:53 PM,30.0,24.1,79,30.22,6.0,South,4.6,-,N/A,,Haze,170,2013-01-09 00:53:00
8:53 PM,30.9,24.1,76,30.21,6.0,South,8.1,-,N/A,,Haze,180,2013-01-09 01:53:00
9:53 PM,30.0,25.0,82,30.19,5.0,South,8.1,-,N/A,,Haze,180,2013-01-09 02:53:00
10:53 PM,30.0,25.0,82,30.19,5.0,South,5.8,-,N/A,,Haze,180,2013-01-09 03:53:00
11:53 PM,28.9,25.0,85,30.16,5.0,South,4.6,-,N/A,,Scattered Clouds,170,2013-01-09 04:53:00